This is the latest recevied weather packets stored in our database for station/object SV2BZQ-2. If no packets are shown the sender has not sent any weather packets the latest 1 day(s).
| Time | Temp. | Humidity | Pressure | Rain* | Wind** | Luminosity | Snow |
|---|---|---|---|---|---|---|---|
| 1777989254 | 28.89° C | 31% | 1011.4 hPa | 0 mm | 1.79 m/s, 286° | 608 W/m² | - |
| 1777989105 | 29.44° C | 31% | 1011.4 hPa | 0 mm | 1.79 m/s, 292° | 617 W/m² | - |
| 1777988996 | 29.44° C | 31% | 1011.4 hPa | 0 mm | 2.24 m/s, 300° | 619 W/m² | - |
| 1777988847 | 29.44° C | 31% | 1011.4 hPa | 0 mm | 2.24 m/s, 294° | 626 W/m² | - |
| 1777988720 | 29.44° C | 32% | 1011.4 hPa | 0 mm | 2.24 m/s, 209° | 631 W/m² | - |
| 1777988639 | 29.44° C | 32% | 1011.4 hPa | 0 mm | 2.24 m/s, 217° | 635 W/m² | - |
| 1777988543 | 29.44° C | 32% | 1011.5 hPa | 0 mm | 2.24 m/s, 202° | 640 W/m² | - |
| 1777988447 | 29.44° C | 32% | 1011.4 hPa | 0 mm | 1.79 m/s, 246° | 643 W/m² | - |
| 1777988330 | 29.44° C | 32% | 1011.4 hPa | 0 mm | 1.79 m/s, 240° | 647 W/m² | - |
| 1777988007 | 29.44° C | 33% | 1011.5 hPa | 0 mm | 1.79 m/s, 275° | 650 W/m² | - |
| 1777987893 | 29.44° C | 33% | 1011.5 hPa | 0 mm | 1.79 m/s, 280° | 657 W/m² | - |
| 1777987777 | 29.44° C | 33% | 1011.5 hPa | 0 mm | 1.79 m/s, 261° | 661 W/m² | - |
| 1777987658 | 29.44° C | 33% | 1011.5 hPa | 0 mm | 2.24 m/s, 265° | 664 W/m² | - |
| 1777987575 | 28.89° C | 33% | 1011.5 hPa | 0 mm | 2.24 m/s, 277° | 671 W/m² | - |
| 1777987341 | 28.89° C | 32% | 1011.5 hPa | 0 mm | 2.24 m/s, 355° | 675 W/m² | - |
| 1777987214 | 28.89° C | 33% | 1011.6 hPa | 0 mm | 2.24 m/s, 338° | 677 W/m² | - |
| 1777987129 | 28.89° C | 32% | 1011.6 hPa | 0 mm | 2.24 m/s, 341° | 682 W/m² | - |
| 1777986977 | 29.44° C | 32% | 1011.6 hPa | 0 mm | 2.68 m/s, 308° | 684 W/m² | - |
| 1777986888 | 29.44° C | 32% | 1011.5 hPa | 0 mm | 2.24 m/s, 280° | 689 W/m² | - |
| 1777986622 | 29.44° C | 33% | 1011.5 hPa | 0 mm | 2.24 m/s, 236° | 694 W/m² | - |
| 1777986532 | 28.89° C | 33% | 1011.6 hPa | 0 mm | 2.24 m/s, 225° | 700 W/m² | - |
| 1777986446 | 28.89° C | 33% | 1011.6 hPa | 0 mm | 2.24 m/s, 234° | 707 W/m² | - |
| 1777986323 | 28.89° C | 34% | 1011.6 hPa | 0 mm | 2.24 m/s, 220° | 712 W/m² | - |
| 1777986197 | 28.89° C | 34% | 1011.7 hPa | 0 mm | 2.24 m/s, 295° | 715 W/m² | - |
| 1777986065 | 28.89° C | 34% | 1011.7 hPa | 0 mm | 2.24 m/s, 281° | 719 W/m² | - |
* Rain latest hour (hover to see other rain measurements)
** Current wind speed in m/s (hover to see current wind gust speed)